Regional Weather Roundup
Issued by NWS

Home | Current Version | Previous Version | Text Only | Print | Product List | Glossary Off
Versions: 1 2 3 4 5 6 7 8 9 10 11 12 13 14 15 16 17 18 19 20 21 22 23 24 25 26 27 28 29 30 31 32 33 34 35 36 37 38 39 40 41 42 43 44 45 46 47 48 49 50

000
ASUS43 KBIS 070020
RWRND

NORTH DAKOTA REGIONAL WEATHER ROUNDUP
NATIONAL WEATHER SERVICE BISMARCK ND
700 PM CDT WED MAY 06 2015

NOTE: "FAIR" INDICATES FEW OR NO CLOUDS BELOW 12,000 FEET WITH NO
SIGNIFICANT WEATHER AND/OR OBSTRUCTIONS TO VISIBILITY.


NDZ001>003-009>011-017-070100-
NORTHWEST NORTH DAKOTA

CITY           SKY/WX    TMP DP  RH WIND       PRES   REMARKS
WILLISTON      LGT RAIN  52  49  89 N18G25    29.72S
6HR MIN TEMP:  52; 6HR MAX TEMP:  61; 6HR PCP:  0.49;

MINOT          LGT RAIN  61  58  90 NW7       29.61F
MINOT AFB      CLOUDY    63 N/A N/A NW10      29.61S
$$

NDZ018>021-031>035-040>046-070100-
SOUTHWEST NORTH DAKOTA

CITY           SKY/WX    TMP DP  RH WIND       PRES   REMARKS
BISMARCK       CLOUDY    68  58  70 SE14      29.60F
6HR MIN TEMP:  63; 6HR MAX TEMP:  71; 6HR PCP:  0.01;

DICKINSON      RAIN      58  55  90 NW13      29.64R FOG
GARRISON         N/A     62  59  90 E6        29.63R
6HR MIN TEMP:  59; 6HR MAX TEMP:  63; 6HR PCP:  0.25;

HETTINGER ARPT LGT RAIN  59  56  89 NW14      29.63F
$$

NDZ004>008-012>016-024-026-027-054-070100-
NORTHEAST NORTH DAKOTA

CITY           SKY/WX    TMP DP  RH WIND       PRES   REMARKS
GRAND FORKS    LGT RAIN  63  60  90 E9        29.72F
GRND FRKS AFB  CLOUDY    62  60  94 E9        29.72F
DEVILS LAKE    CLOUDY    61  55  82 SE14      29.68F
$$

NDZ022-023-025-028>030-036>039-047>053-070100-
SOUTHEAST NORTH DAKOTA

CITY           SKY/WX    TMP DP  RH WIND       PRES   REMARKS
FARGO          LGT RAIN  64  60  87 E14       29.69F
6HR MIN TEMP:  63; 6HR MAX TEMP:  66; 6HR PCP:  0.11;

JAMESTOWN      CLOUDY    61  59  93 E17       29.63F FOG
$$



USA.gov is the U.S. government's official web portal to all federal, state and local government web resources and services.